Regional Weather Roundup
Issued by NWS

Home | Current Version | Previous Version | Graphics & Text | Print | Product List | Glossary On
Versions: 1 2 3 4 5 6 7 8 9 10 11 12 13 14 15 16 17 18 19 20 21 22 23 24 25 26 27 28 29 30 31 32 33 34 35 36 37 38 39 40 41 42 43 44 45 46 47 48 49 50
000
ASUS43 KOAX 171802
RWRNE

WEATHER ROUNDUP FOR NEBRASKA
NATIONAL WEATHER SERVICE OMAHA NE
1200 PM CST SUN DEC 17 2017

NOTES: SATELLITE DATA IS BEING USED TO AUGMENT CLOUD COVER ABOVE
       12000 FEET.
       "FAIR" INDICATES FEW OR NO CLOUDS BELOW 12,000 FEET WITH NO
       SIGNIFICANT WEATHER AND/OR OBSTRUCTIONS TO VISIBILITY.


NEZ001>004-019>022-054>056-171900-
NEBRASKA PANHANDLE

CITY           SKY/WX    TMP DP  RH WIND       PRES   REMARKS
SCOTTSBLUFF    PTSUNNY   38  29  70 S5        29.97F WCI  34
6HR MIN TEMP:  31; 6HR MAX TEMP:  38;

ALLIANCE       CLOUDY    35  31  85 S9        29.97F WCI  28
6HR MIN TEMP:  29; 6HR MAX TEMP:  35;

CHADRON        CLOUDY    36  28  73 SW9       29.97F WCI  29
6HR MIN TEMP:  29; 6HR MAX TEMP:  36;

GORDON         CLOUDY    34  29  82 SW7       29.97F WCI  28
6HR MIN TEMP:  31; 6HR MAX TEMP:  34;

KIMBALL        MOSUNNY   35  29  76 SW10      29.97F WCI  28
SIDNEY         PTSUNNY   36  31  82 W10       29.99F WCI  28
6HR MIN TEMP:  30; 6HR MAX TEMP:  36;

$$

NEZ057>060-069>072-079>082-171900-
SOUTHWEST NEBRASKA

CITY           SKY/WX    TMP DP  RH WIND       PRES   REMARKS
NORTH PLATTE   CLOUDY    38  33  82 NW3       30.02F
6HR MIN TEMP:  35; 6HR MAX TEMP:  38;

IMPERIAL       CLOUDY    36  34  92 N7        30.02F WCI  30
6HR MIN TEMP:  33; 6HR MAX TEMP:  36;

LEXINGTON      CLOUDY    39  32  76 N10       30.03F WCI  32
MCCOOK         CLOUDY    39  31  72 N6        30.03F WCI  35
6HR MIN TEMP:  34; 6HR MAX TEMP:  39;

OGALLALA       CLOUDY    37  34  89 CALM      30.01F
$$

NEZ005>010-023>029-035>040-094-171900-
NORTH CENTRAL NEBRASKA

CITY           SKY/WX    TMP DP  RH WIND       PRES   REMARKS
VALENTINE      CLOUDY    39  30  70 W7        30.01F WCI  34
6HR MIN TEMP:  32; 6HR MAX TEMP:  39;

AINSWORTH      CLOUDY    37  32  84 W3        30.03F
BROKEN BOW     CLOUDY    36  31  82 N10       30.02F WCI  28
6HR MIN TEMP:  33; 6HR MAX TEMP:  37; 6HR PCP: TRACE;

O`NEILL        PTSUNNY   39  30  71 NE6       30.03F WCI  35
ORD            CLOUDY    38  30  73 N9        30.02F WCI  31
6HR MIN TEMP:  30; 6HR MAX TEMP:  38;

THEDFORD       CLOUDY    36  31  82 CALM      30.03F
$$

NEZ041-046>049-061>064-073>077-083>087-171900-
SOUTH CENTRAL NEBRASKA

CITY           SKY/WX    TMP DP  RH WIND       PRES   REMARKS
GRAND ISLAND   SUNNY     39  30  70 N13       30.02F WCI  31
6HR MIN TEMP:  26; 6HR MAX TEMP:  39;

AURORA         SUNNY     38  30  73 N9        30.01F WCI  31
HASTINGS       SUNNY     39  28  64 N13       30.01F WCI  31
6HR MIN TEMP:  24; 6HR MAX TEMP:  39;

HEBRON         PTSUNNY   39  32  77 N8        30.00F WCI  33
HOLDREGE       MOSUNNY   38  32  77 N10       30.01F WCI  32
KEARNEY        MOSUNNY   39  30  70 N15       30.02F WCI  31
YORK           SUNNY     37  32  81 N10       30.01F WCI  30
$$

NEZ011>018-030>034-042>045-171900-
NORTHEAST NEBRASKA

CITY           SKY/WX    TMP DP  RH WIND       PRES   REMARKS
NORFOLK        CLOUDY    36  28  73 NE9       30.00F WCI  29
6HR MIN TEMP:  29; 6HR MAX TEMP:  36;

ALBION         CLOUDY    37  31  78 NW9       30.02F WCI  30
BLAIR          PTSUNNY   33  28  83 N6        30.01S WCI  27
COLUMBUS       SUNNY     37  29  72 NW7       30.02F WCI  32
FREMONT        PTSUNNY   30  26  84 NW10      30.02F WCI  21
TEKAMAH        CLOUDY    31  25  78 N13       30.04F WCI  21
6HR MIN TEMP:  26; 6HR MAX TEMP:  32;

WAYNE          CLOUDY    32  29  88 NE3       30.04S
$$

NEZ050>053-065>068-078-088>093-171900-
SOUTHEAST NEBRASKA

CITY           SKY/WX    TMP DP  RH WIND       PRES   REMARKS
LINCOLN        MOSUNNY   35  30  82 N6        30.02F WCI  30
6HR MIN TEMP:  31; 6HR MAX TEMP:  35; 6HR PCP:  0.12;

OMAHA EPPLEY   CLOUDY    34  27  75 N8        30.03F WCI  27
6HR MIN TEMP:  29; 6HR MAX TEMP:  34; 6HR PCP: TRACE;

BEATRICE       CLOUDY    37  35  94 N9        30.00F FOG     WCI  30
FALLS CITY     CLOUDY    38  36  92 N9        30.00F WCI  31
6HR MIN TEMP:  38; 6HR MAX TEMP:  43; 6HR PCP:  0.07;

NEBRASKA CITY  CLOUDY    34  34 100 NE6       30.00F FOG     WCI  29
PLATTSMOUTH    CLOUDY    32  30  93 NW7       30.01F FOG     WCI  26
$$

NEZ044-045-051>053-067-171900-
OMAHA AREA

CITY           SKY/WX    TMP DP  RH WIND       PRES   REMARKS
OMAHA EPPLEY   CLOUDY    34  27  75 N8        30.03F WCI  27
6HR MIN TEMP:  29; 6HR MAX TEMP:  34; 6HR PCP: TRACE;

BLAIR          PTSUNNY   33  28  83 N6        30.01S WCI  27
FREMONT        PTSUNNY   30  26  84 NW10      30.02F WCI  21
MILLARD        CLOUDY    35  30  82 N5        30.02F WCI  31
OFFUTT AFB     CLOUDY    34  29  84 N5        30.01F WCI  29
PLATTSMOUTH    CLOUDY    32  30  93 NW7       30.01F FOG     WCI  26
WAHOO          CLOUDY    35  27  71 N6        30.03R WCI  30
$$



USA.gov is the U.S. government's official web portal to all federal, state and local government web resources and services.